Location: Arboyeti
(42.1122°N, 44.6017°E)
Time: 20:50:43
(UTC+00:00)

Resurs 1-4 Rocket - Pass Details

Date: 19 April 2021
Orbit: 799 x 815 km, 98.6° (Epoch: 17 May)

Event Time Altitude Azimuth Distance (km) Brightness Sun altitude
Rises 23:37:58 0° 2° (N) 3,323 6.0 -25.4°
Reaches altitude 10° 23:40:35 10° 352° (N) 2,386 5.0 -25.0°
Enters shadow 23:44:50 28° 298° (WNW) 1,469 3.3 -24.5°
